WFO RAH Logo

WFO RAH Text Data
RWRRAH
NORTH CAROLINA WEATHER ROUNDUP
NATIONAL WEATHER SERVICE RALEIGH NC
700 AM EST MON MAR 02 2009

NOTE: "FAIR" INDICATES FEW OR NO CLOUDS BELOW 12,000 FEET WITH NO
SIGNIFICANT WEATHER AND/OR OBSTRUCTIONS TO VISIBILITY.

NCZ001-053-055-056-065-067-021300-
WESTERN NORTH CAROLINA
  
CITY           SKY/WX    TMP DP  RH WIND       PRES   REMARKS
ASHEVILLE      LGT SNOW  20  15  81 N25G39    29.98R WCI   2          
JEFFERSON      LGT SNOW  12   7  79 NW13G30   29.86R WCI  -3          
MORGANTON      PTCLDY    23  16  74 CALM      30.00R                  
HICKORY        PTCLDY    24  16  71 NW10G20   29.93R WCI  14          
RUTHERFORDTON  NOT AVBL                                               
MOUNT AIRY     PTCLDY    25  14  63 N10G21    29.95R WCI  15          
$$
 
NCZ021-022-025-041-071-084-088-021300-
CENTRAL NORTH CAROLINA
  
CITY           SKY/WX    TMP DP  RH WIND       PRES   REMARKS
CHARLOTTE      MOCLDY    27  21  78 N5        29.97R WCI  22          
GREENSBORO     PTCLDY    24  21  88 N8G20     29.92S WCI  15          
WINSTON-SALEM  CLOUDY    23  17  78 N12       29.94R WCI  12          
RALEIGH-DURHAM CLOUDY    31  25  78 VRB7      29.92R WCI  24          
FORT BRAGG     CLOUDY    33  27  80 N16G23    29.90R WCI  22          
FAYETTEVILLE   CLOUDY    34  26  72 N21G30    29.91R WCI  22          
CHAPEL HILL    CLOUDY    30  23  75 VRB6      29.94R WCI  24          
BURLINGTON     MOCLDY    26  21  81 N12G18    29.91R WCI  16          
LAURINBURG     CLOUDY    33  27  78 N13       29.94R WCI  24          
$$
 
NCZ011-015-027-028-043-044-047-080-103-021300-
NORTHEASTERN NORTH CAROLINA
  
CITY           SKY/WX    TMP DP  RH WIND       PRES   REMARKS
ROANOKE RAPIDS LGT SNOW  27  22  81 N14G24    29.90S WCI  16          
ROCKY MT-WILSO CLEAR     29  23  78 N17G28    29.89R WCI  17          
GREENVILLE     CLOUDY    30  27  86 N18G30    29.86R WCI  18          
WASHINGTON     CLOUDY    34  30  86 NW10G17   29.81R WCI  26          
ELIZABETH CITY MIX PCPN  33  29  85 N26G32    29.79F WCI  20          
MANTEO         LGT RAIN  36  36 100 NW13G30   29.78R WCI  27          
CAPE HATTERAS  CLOUDY    39  36  89 NW10G17   29.76R WCI  32          
$$
 
NCZ078-087-090-091-093-098-101-021300-
SOUTHEASTERN NORTH CAROLINA
  
CITY           SKY/WX    TMP DP  RH WIND       PRES   REMARKS
LUMBERTON      CLOUDY    35  29  78 N13G20    29.90R WCI  26          
GOLDSBORO      CLOUDY    32  30  92 N12G22    29.85R WCI  23          
KINSTON        CLOUDY    32  28  86 N18G29    29.95R WCI  20          
KENANSVILLE    CLOUDY    34  30  86 N9G18     29.88R WCI  26          
NEW BERN       CLOUDY    35  32  88 N10G18    29.83R WCI  27          
CHERRY POINT   CLOUDY    35  32  88 N18       29.81R WCI  24          
BEAUFORT       CLOUDY    36  33  89 N14G21    29.79R WCI  27          
JACKSONVILLE   CLOUDY    35  32  88 N13G18    29.84R WCI  26          
WILMINGTON     CLOUDY    36  31  82 N15       29.85R WCI  27          
$$